Location: Clatteringshaws Loch
(55.0508°N, 4.2860°W)
Time: 20:14:44
(UTC+01:00)

Daily predictions for brighter satellites

Satellite Brightness Start Highest point End
(mag) Time Altitude Azimuth Time Altitude Azimuth Time Altitude Azimuth
Cosmos 2227 Rocket 4.5 22:49:33 10° W 22:54:32 31° NW 22:59:33 10° NNE
Cosmos 1943 4.1 22:50:09 10° NW 22:55:26 42° WSW 23:00:44 10° S
SL-14 R/B 3.5 22:53:14 10° SSW 22:57:11 73° WNW 23:01:07 10° N
PSLV R/B 3.7 22:54:31 10° SE 22:57:15 41° ENE 22:59:58 10° N
Cosmos 1867 3.9 22:51:49 10° SW 22:57:16 75° NW 23:02:47 10° NE
Spot 4 4.3 22:53:11 10° SE 22:57:54 53° ENE 23:02:40 10° N
H-2A R/B 2.1 22:56:48 10° SSE 23:01:04 76° ENE 23:05:16 10° NNW
Cosmos 1743 Rocket 3.7 22:58:24 10° SSW 23:02:43 76° WNW 23:07:05 10° N
Cosmos 540 Rocket 3.6 22:58:13 10° NNW 23:03:24 74° WSW 23:08:32 10° SSE
Cosmos 1503 Rocket 4.4 23:01:47 10° S 23:06:41 45° ESE 23:11:36 10° NE
Cosmos 2058 3.0 23:03:48 10° S 23:07:59 74° E 23:12:14 10° NNE
Cosmos 1455 2.2 23:04:11 10° NNW 23:08:06 90° SW 23:11:57 10° S
CZ-2C R/B 4.5 23:10:17 10° NE 23:13:24 16° E 23:16:29 10° ESE
Cosmos 220 Rocket 4.4 23:13:44 10° SW 23:18:08 70° WNW 23:22:29 10° NNE
H-2A R/B 3.3 23:17:29 10° SSW 23:22:31 39° W 23:27:39 10° NNW
CZ-3B DEB 4.2 23:14:25 10° W 23:25:44 88° S 23:38:45 10° ESE
Cosmos 2242 Rocket 4.3 23:22:39 10° N 23:27:07 47° ENE 23:31:28 10° SE
SL-19 R/B 4.3 23:23:41 10° NNE 23:28:58 60° ESE 23:34:26 10° S
Cosmos 1869 3.3 23:31:04 10° NNW 23:35:03 88° WSW 23:38:49 11° S
Cosmos 1933 4.2 23:34:22 10° N 23:38:17 41° ENE 23:41:58 11° SE
Cosmos 2034 Rocket 4.1 23:32:56 10° N 23:39:20 80° ENE 23:45:28 11° SSE
Cosmos 1833 Rocket 4.2 23:34:19 10° NNW 23:39:24 32° NE 23:44:28 10° E
Sich 1 3.3 23:37:58 11° S 23:41:58 50° E 23:46:08 10° NNE
Cosmos 292 Rocket 3.8 23:37:49 10° NNW 23:42:38 85° ENE 23:47:05 12° SSE
Cosmos 1891 Rocket 4.5 23:37:35 10° NNW 23:43:44 88° W 23:49:37 11° S
Cosmos 2151 4.0 23:40:34 10° SSW 23:44:44 47° WNW 23:48:57 10° N
SL-27 R/B 3.7 23:42:40 10° N 23:45:44 31° NE 23:48:46 10° ESE
Cosmos 2278 Rocket 4.0 23:46:11 10° SE 23:49:12 15° E 23:52:14 10° ENE
Cosmos 1538 Rocket 4.1 23:45:37 10° NNW 23:51:03 87° ENE 23:56:02 12° SSE
Cosmos 1354 Rocket 4.0 23:47:12 10° SSW 23:52:27 89° WNW 23:57:44 10° NNE
deb Chang Zheng 4 3.6 23:48:05 10° NNE 23:52:29 83° ESE 23:56:53 10° SSW
Cosmos 1707 Rocket 4.0 23:48:07 10° NNW 23:52:33 59° W 23:56:52 10° S
Cosmos 1400 Rocket 3.9 23:51:38 13° SSE 23:54:51 33° E 23:58:36 10° NNE
